User: anonymous   Login
Location: Unspecified
(0.0000°N, 0.0000°E)
Time: 02:56:26
(UTC+00:00)
Language:

Tiros 5 - Orbit

View from above orbital plane
View from above orbital plane
View from above satellite
View from above satellite

Ground track
Ground track

The orbit data is extracted from the following two-line orbital elements,

1   309U 62025A   18171.26226762 -.00000138 +00000-0 +12372-4 0  9990
2   309 058.0922 102.3170 0190366 217.0329 141.7436 14.56747693956214
Epoch (UTC): 20 June 2018 06:17:39
Eccentricity: 0.0190366
inclination: 58.0922°
perigee height: 569 km
apogee height: 838 km
right ascension of ascending node: 102.3170°
argument of perigee: 217.0329°
revolutions per day: 14.56747693
mean anomaly at epoch: 141.7436°
orbit number at epoch: 95621

The dashed part of the orbit path shows where the satellite is in the earth's shadow,  

DLR